Погода в Воднобуерачном

Россия / Волгоградская область     50°32′26″N   45°38′16″E
темп.,
°C
ветер,
м/с
пор.,
м/с
влажн.,
%
обл.,
%
осадки,
мм/ч
давл.,
гПа
погр.,
м
10 мая, пн
пн1000:00+11сз4588100 1.8 1011253
03:00+10с3595100 7.6 1010184
06:00+11ссз4995100 0.9 1009264
09:00+14св5978100 1.0 1008321
12:00+15в71574100 1.9 10081020
15:00+10юв61294100 5.1 1011433
18:00+9вюв3793100 2.7 1013406
21:00+8ю4594100 4.8 1014336
11 мая, вт
вт1100:00+8юв3595100 8.2 1016367
03:00+8ююв379196 9.2 1017407
06:00+8в3672100 0.1 1019301
09:00+11ююв796911 0.1 10211019
12:00+14ююв785824 0.0 10231285
15:00+15ю45525 0.0 10241111
18:00+15всв025597 0.0 1025348
21:00+11ссз3462100 0.0 102457
12 мая, ср
ср1200:00+11с4969100 0.0 1023223
03:00+10ссв4889100 0.0 1022308
06:00+10ссв3696100 0.1 1021318
09:00+13в238799 0.1 1020427
12:00+16вюв3478100 0.1 1021751
15:00+17юв2574100 0.1 1021570
18:00+17ссв347736 0.0 1020156
21:00+16св41081100 0.0 1020252
13 мая, чт
чт1300:00+16св51077100 0.0 1018293
03:00+15в51274100 0.0 1018411
06:00+15вюв4128295 0.1 1018448
09:00+19юв710671 0.1 1018851
12:00+23ююв78556 0.0 10191364
15:00+24ююв575299 0.0 10181604
18:00+23вюв126313 0.0 101856
21:00+19всв22700 0.0 101922
14 мая, пт
пт1400:00+16всв22620 0.0 101915
03:00+15св22645 0.0 101912
06:00+16св2262100 0.0 102073
09:00+22вюв4646100 0.0 1019390
12:00+25юв793855 0.0 1019989
15:00+27ююв7103751 0.0 10181226
18:00+25юв510455 0.0 1018268
21:00+19вюв34595 0.0 101846